This demonstration page uses our WeatherBlox Daily Observations layout. Learn more.

Left ArrowRight Arrow

Hourly Observations for April 21, 2022

Temp ( °F °C ) Dew Point ( °F °C ) Humidity (%) Winds ( mph kmh ) Pressure ( in mb ) Visibility ( mi km ) Precip ( " mm )
12:37 am 00:37 Cloudy with Light Rain 56 13.3 49 9.4 77 77 SSW 14 22 29.74 1007 7 11 0.00 0.00
12:53 am 00:53 Cloudy with Rain 54 12.2 50 10 87 87 W 14 22 29.73 1007 4 6 0.03 0.76
12:59 am 00:59 Cloudy with Heavy Rain 52 11.1 48 8.9 86 86 WSW 17 28 29.77 1008 2 2 0.05 1.27
1:01 am 01:01 Cloudy with Nearby Thunderstorms 51 10.6 45 7.2 80 80 SSW 14 22 29.76 1008 1 2 0.12 3.05
1:08 am 01:08 Cloudy with Nearby Thunderstorms 50 10 43 6.1 77 77 S 14 22 29.76 1008 2 3 0.25 6.35
1:10 am 01:10 Cloudy with Nearby Thunderstorms 50 10 43 6.1 77 77 S 16 26 29.77 1008 3 5 0.25 6.35
1:15 am 01:15 Cloudy with Rain 49 9.4 43 6.1 80 80 S 14 22 29.77 1008 2 3 0.25 6.35
1:21 am 01:21 Cloudy with Heavy Rain 50 10 44 6.7 80 80 S 17 28 29.77 1008 2 2 0.32 8.13
1:29 am 01:29 Cloudy with Rain 49 9.4 45 7.2 86 86 SSW 13 20 29.76 1008 2 3 0.39 9.91
1:40 am 01:40 Cloudy with Light Rain 50 10 44 6.7 80 80 SSW 9 15 29.76 1008 5 8 0.43 10.92
1:53 am 01:53 Cloudy with Thunderstorms 50 10 44 6.7 80 80 S 8 13 29.75 1008 10 16 0.43 10.92
2:10 am 02:10 Cloudy with Rain 48 8.9 44 6.7 86 86 S 15 24 29.77 1008 4 6 0.04 1.02
2:22 am 02:22 Cloudy with Nearby Thunderstorms 49 9.4 44 6.7 83 83 S 9 15 29.78 1008 6 10 0.05 1.27
2:37 am 02:37 Cloudy with Light Rain 49 9.4 43 6.1 80 80 SSW 8 13 29.77 1008 9 14 0.07 1.78
2:53 am 02:53 Cloudy with Light Rain 49 9.4 44 6.7 83 83 S 9 15 29.75 1008 10 16 0.08 2.03
3:53 am 03:53 Cloudy 48 8.9 44 6.7 86 86 E 7 11 29.77 1008 10 16 0.00 0.00
4:53 am 04:53 Mostly Cloudy 48 8.9 44 6.7 86 86 E 5 7 29.79 1009 10 16 0.00 0.00
5:53 am 05:53 Cloudy with Light Rain 47 8.3 44 6.7 90 90 NNW 6 9 29.81 1010 10 16 0.00 0.00
6:53 am 06:53 Cloudy 47 8.3 43 6.1 86 86 Calm 29.82 1010 10 16 0.00 0.00
7:53 am 07:53 Cloudy 48 8.9 44 6.7 86 86 NNW 3 6 29.84 1011 10 16 0.00 0.00
8:53 am 08:53 Cloudy 50 10 46 7.8 86 86 NE 3 6 29.86 1011 10 16 0.00 0.00
9:53 am 09:53 Mostly Cloudy 54 12.2 46 7.8 75 75 Calm 29.88 1012 10 16 0.00 0.00
10:13 am 10:13 Mostly Cloudy 55 12.8 47 8.3 74 74 ESE 5 7 29.89 1012 10 16 0.00 0.00
10:27 am 10:27 Partly Cloudy 56 13.3 45 7.2 67 67 S 6 9 29.89 1012 10 16 0.00 0.00
10:53 am 10:53 Mostly Sunny 55 12.8 45 7.2 69 69 S 6 9 29.88 1012 10 16 0.00 0.00
11:53 am 11:53 Mostly Sunny 58 14.4 43 6.1 58 58 S 8 13 29.89 1012 10 16 0.00 0.00
12:53 pm 12:53 Mostly Cloudy 61 16.1 41 5 48 48 S 10 17 29.86 1011 10 16 0.00 0.00
1:53 pm 13:53 Partly Cloudy 64 17.8 37 2.8 37 37 S 17 28 29.84 1011 10 16 0.00 0.00
2:53 pm 14:53 Mostly Cloudy 64 17.8 37 2.8 37 37 S 15 24 29.83 1010 10 16 0.00 0.00
3:53 pm 15:53 Mostly Sunny 64 17.8 36 2.2 35 35 S 17 28 29.80 1009 10 16 0.00 0.00
4:53 pm 16:53 Mostly Cloudy 63 17.2 36 2.2 37 37 S 20 31 29.78 1009 10 16 0.00 0.00
5:53 pm 17:53 Mostly Cloudy 59 15 40 4.4 49 49 NNW 7 11 29.78 1009 10 16 0.00 0.00
6:53 pm 18:53 Partly Cloudy 57 13.9 42 5.6 58 58 SE 13 20 29.81 1009 10 16 0.00 0.00
7:53 pm 19:53 Mostly Cloudy 55 12.8 43 6.1 64 64 S 9 15 29.82 1010 10 16 0.00 0.00
8:53 pm 20:53 Mostly Cloudy 53 11.7 43 6.1 69 69 S 6 9 29.84 1010 10 16 0.00 0.00
9:53 pm 21:53 Mostly Cloudy 51 10.6 43 6.1 74 74 Calm 29.86 1011 10 16 0.00 0.00
10:53 pm 22:53 Cloudy 51 10.6 43 6.1 74 74 NW 3 6 29.87 1012 10 16 0.00 0.00
11:53 pm 23:53 Mostly Cloudy 50 10 43 6.1 77 77 NW 5 7 29.87 1012 10 16 0.00 0.00

Powered by AerisWeather